Jefferson, NC

6:53 PM EST on December 15, 2019 (GMT -0500)
Ashe County

Weather History for KGEV - October, 2019

Change the Weather History Date:

Tuesday, October 29, 2019

  Actual Average Record
Temperature  
Mean Temperature 58 °F -  
Max Temperature 63 °F 60 °F 73 °F (1984)
Min Temperature 52 °F 33 °F 18 °F (1987)
Degree Days  
Heating Degree Days 8    
Growing Degree Days 8 (Base 50)    
Moisture  
Dew Point 54 °F    
Average Humidity 92    
Maximum Humidity 100    
Minimum Humidity 71    
Precipitation  
Precipitation 0.00 in - - ()
Sea Level Pressure  
Sea Level Pressure 30.25 in    
Wind  
Wind Speed 1 mph ()    
Max Wind Speed 9 mph    
Max Gust Speed -    
Visibility 7.7 miles    
Events Fog    
Averages and records for this station are not official NWS values.
T = Trace of Precipitation, MM = Missing Value Source: Averaged Metar Reports

Daily Weather History Graph

Daily Weather History Graph

Search for Another Location

Airport or City:

Astronomy

Oct. 29, 2019 Rise Set
Actual Time 7:45 AM EDT 6:32 PM EDT
Civil Twilight 7:19 AM EDT 6:59 PM EDT
Nautical Twilight 6:48 AM EDT 7:29 PM EDT
Astronomical Twilight 6:18 AM EDT 7:59 PM EDT
Moon 9:16 AM EDT (10/29) 7:58 PM EDT (10/29)
Length of Visible Light 11h 39m
Length of Day
10h 46m
Waxing Crescent, 3% of the Moon is Illuminated
Oct 29
Waxing Crescent
Nov 4
First Quarter
Nov 12
Full
Nov 19
Last Quarter
Nov 26
New

Hourly Weather History & Observations

Time (EDT) Temp. Dew Point Humidity Pressure Visibility Wind Dir Wind Speed Gust Speed Precip Events Conditions
12:15 AM 54.1 °F 50.4 °F 87% 30.23 in 10.0 mi Calm Calm - N/A   Overcast
12:35 AM 54.3 °F 50.4 °F 86% 30.23 in 10.0 mi Calm Calm - N/A   Overcast
12:55 AM 54.3 °F 50.2 °F 86% 30.22 in 10.0 mi Calm Calm - N/A   Overcast
1:15 AM 54.1 °F 50.2 °F 86% 30.22 in 10.0 mi Calm Calm - N/A   Overcast
1:35 AM 53.8 °F 50.4 °F 88% 30.22 in 10.0 mi Calm Calm - N/A   Overcast
1:55 AM 53.8 °F 50.5 °F 89% 30.22 in 10.0 mi Calm Calm - N/A   Overcast
2:15 AM 53.2 °F 50.5 °F 91% 30.22 in 10.0 mi Calm Calm - N/A   Overcast
2:35 AM 53.2 °F 50.9 °F 92% 30.21 in 10.0 mi Calm Calm - N/A   Overcast
2:55 AM 53.8 °F 51.1 °F 91% 30.21 in 10.0 mi Calm Calm - N/A   Overcast
3:15 AM 53.6 °F 51.3 °F 92% 30.21 in 10.0 mi Calm Calm - N/A   Overcast
3:35 AM 53.8 °F 51.6 °F 92% 30.21 in 10.0 mi Calm Calm - N/A   Overcast
3:55 AM 53.8 °F 51.8 °F 93% 30.20 in 10.0 mi Calm Calm - N/A   Overcast
4:15 AM 53.6 °F 51.8 °F 94% 30.21 in 10.0 mi Calm Calm - N/A   Overcast
4:35 AM 53.6 °F 52.0 °F 94% 30.20 in 10.0 mi Calm Calm - N/A   Overcast
5:15 AM 53.6 °F 52.2 °F 95% 30.21 in 10.0 mi Calm Calm - N/A   Overcast
5:35 AM 53.2 °F 52.3 °F 97% 30.21 in 10.0 mi Calm Calm - N/A   Overcast
5:55 AM 53.1 °F 52.7 °F 99% 30.22 in 10.0 mi Calm Calm - N/A   Overcast
6:15 AM 53.1 °F 52.7 °F 99% 30.22 in 10.0 mi Calm Calm - N/A   Overcast
6:35 AM 52.9 °F 52.9 °F 100% 30.23 in 7.0 mi Calm Calm - N/A   Overcast
6:55 AM 52.7 °F 52.7 °F 100% 30.22 in 5.0 mi Calm Calm - N/A   Overcast
7:15 AM 52.7 °F 52.7 °F 100% 30.22 in 3.0 mi Calm Calm - N/A   Overcast
7:35 AM 52.7 °F 52.7 °F 100% 30.23 in 1.8 mi Calm Calm - N/A   Overcast
7:55 AM 52.9 °F 52.9 °F 100% 30.23 in 0.2 mi Calm Calm - N/A Fog Fog
8:15 AM 52.9 °F 52.9 °F 100% 30.24 in 0.2 mi Calm Calm - N/A Fog Fog
8:35 AM 53.2 °F 53.2 °F 100% 30.24 in 0.5 mi Calm Calm - N/A Fog Fog
8:55 AM 53.1 °F 53.1 °F 100% 30.25 in 0.2 mi Calm Calm - N/A Fog Fog
9:15 AM 53.2 °F 53.2 °F 100% 30.26 in 0.2 mi Calm Calm - N/A Fog Fog
9:55 AM 54.5 °F 54.5 °F 100% 30.27 in 1.8 mi Calm Calm - N/A   Overcast
10:15 AM 54.9 °F 54.9 °F 100% 30.27 in 7.0 mi Calm Calm - N/A   Overcast
10:35 AM 55.6 °F 55.6 °F 100% 30.27 in 10.0 mi SSE 3.5 mph - N/A   Overcast
11:15 AM 59.0 °F 55.4 °F 88% 30.28 in 10.0 mi SSE 3.5 mph - N/A   Mostly Cloudy
11:35 AM 60.4 °F 55.6 °F 84% 30.28 in 10.0 mi SE 5.8 mph - N/A   Mostly Cloudy
11:55 AM 59.5 °F 55.2 °F 86% 30.28 in 10.0 mi ESE 6.9 mph - N/A   Overcast
12:15 PM 60.4 °F 54.9 °F 82% 30.27 in 10.0 mi ESE 5.8 mph - N/A   Mostly Cloudy
12:35 PM 62.6 °F 56.3 °F 80% 30.27 in 10.0 mi SSE 5.8 mph - N/A   Mostly Cloudy
12:55 PM 60.6 °F 55.2 °F 82% 30.27 in 10.0 mi ESE 5.8 mph - N/A   Mostly Cloudy
1:15 PM 61.9 °F 55.0 °F 78% 30.26 in 10.0 mi ESE 3.5 mph - N/A   Mostly Cloudy
1:35 PM 62.2 °F 54.9 °F 77% 30.26 in 10.0 mi ESE 9.2 mph - N/A   Scattered Clouds
1:55 PM 60.3 °F 54.5 °F 81% 30.25 in 10.0 mi ESE 5.8 mph - N/A   Scattered Clouds
2:15 PM 60.6 °F 54.5 °F 80% 30.24 in 10.0 mi ESE 5.8 mph - N/A   Scattered Clouds
2:35 PM 61.3 °F 54.5 °F 78% 30.24 in 10.0 mi SE 3.5 mph - N/A   Scattered Clouds
2:55 PM 62.6 °F 53.8 °F 73% 30.24 in 10.0 mi ESE 4.6 mph - N/A   Clear
3:15 PM 63.3 °F 53.8 °F 71% 30.23 in 10.0 mi ESE 5.8 mph - N/A   Clear
3:35 PM 63.3 °F 55.4 °F 75% 30.24 in 10.0 mi ESE 4.6 mph - N/A   Clear
3:55 PM 62.1 °F 55.4 °F 79% 30.24 in 10.0 mi SE 4.6 mph - N/A   Clear
4:15 PM 60.1 °F 55.0 °F 83% 30.24 in 10.0 mi SE 5.8 mph - N/A   Clear
4:35 PM 59.7 °F 55.4 °F 86% 30.24 in 10.0 mi SSE 4.6 mph - N/A   Clear
4:55 PM 58.3 °F 55.4 °F 90% 30.25 in 10.0 mi SE 5.8 mph - N/A   Scattered Clouds
5:15 PM 57.7 °F 55.4 °F 92% 30.25 in 10.0 mi SE 3.5 mph - N/A   Overcast
5:35 PM 57.0 °F 55.2 °F 94% 30.25 in 10.0 mi SSE 3.5 mph - N/A   Overcast
5:55 PM 56.5 °F 55.4 °F 96% 30.26 in 10.0 mi ESE 3.5 mph - N/A   Overcast
6:15 PM 56.3 °F 55.2 °F 96% 30.26 in 10.0 mi SSE 3.5 mph - N/A   Overcast
6:35 PM 55.6 °F 55.0 °F 98% 30.27 in 10.0 mi SSE 3.5 mph - N/A   Overcast
6:55 PM 55.0 °F 54.9 °F 99% 30.27 in 7.0 mi Calm Calm - N/A   Mostly Cloudy
7:15 PM 54.7 °F 54.7 °F 100% 30.26 in 7.0 mi Calm Calm - N/A   Scattered Clouds
7:35 PM 54.7 °F 54.7 °F 100% 30.27 in 7.0 mi SSE 3.5 mph - N/A   Mostly Cloudy
7:55 PM 54.9 °F 54.9 °F 100% 30.27 in 7.0 mi SE 3.5 mph - N/A   Overcast
8:15 PM 55.4 °F 55.4 °F 100% 30.27 in 7.0 mi SE 3.5 mph - N/A   Overcast
8:35 PM 55.4 °F 55.4 °F 100% 30.28 in 7.0 mi SE 3.5 mph - N/A   Overcast
8:55 PM 55.4 °F 55.4 °F 100% 30.28 in 7.0 mi SSE 3.5 mph - N/A   Overcast
9:15 PM 55.4 °F 55.4 °F 100% 30.29 in 4.0 mi SE 3.5 mph - N/A   Overcast
9:35 PM 55.4 °F 55.4 °F 100% 30.29 in 5.0 mi SSE 3.5 mph - N/A   Overcast
9:55 PM 55.4 °F 55.4 °F 100% 30.30 in 5.0 mi Calm Calm - N/A   Overcast
10:15 PM 55.0 °F 55.0 °F 100% 30.30 in 5.0 mi Calm Calm - N/A   Overcast
10:35 PM 55.0 °F 55.0 °F 100% 30.29 in 5.0 mi Calm Calm - N/A   Overcast
10:55 PM 54.7 °F 54.7 °F 100% 30.29 in 5.0 mi Calm Calm - N/A   Overcast
11:15 PM 54.5 °F 54.5 °F 100% 30.28 in 4.0 mi SSE 3.5 mph - N/A   Overcast
11:35 PM 54.0 °F 54.0 °F 100% 30.27 in 3.0 mi Calm Calm - N/A   Overcast
11:55 PM 54.0 °F 54.0 °F 100% 30.27 in 2.0 mi Calm Calm - N/A   Overcast